Regional Weather Roundup
Issued by NWS Memphis, TN

Home | Current Version | Previous Version | Text Only | Print | Product List | Glossary On
Versions: 1 2 3 4 5 6 7 8 9 10 11 12 13 14 15 16 17 18 19 20 21 22 23 24 25 26 27 28 29 30 31 32 33 34 35 36 37 38 39 40 41 42 43 44 45 46 47 48 49 50
000
ASUS44 KMEG 200110
RWRMEG
MEMPHIS CWA HOURLY WEATHER ROUNDUP
NATIONAL WEATHER SERVICE MEMPHIS TN
800 PM CDT SAT APR 19 2014

...WEST TENNESSEE...

CITY           SKY/WX    TMP DP  RH WIND       PRES   REMARKS
MEMPHIS INTL   PTCLDY    72  41  32 NE8       30.13S
NWS MEMPHIS      N/A     71 N/A N/A MISG        N/A
JACKSON        PTCLDY    65  42  43 N3        30.14R
LEXINGTON      CLEAR     70  37  30 NE3       30.14R
SAVANNAH       PTCLDY    64  45  50 CALM      30.14R
DYERSBURG      MOCLDY    68  43  40 CALM      30.16S
UNION CITY     CLEAR     66  45  45 N3        30.15R
PARIS          CLEAR     62  38  41 CALM      30.16R


...EASTERN ARKANSAS...

CITY           SKY/WX    TMP DP  RH WIND       PRES   REMARKS
JONESBORO      CLEAR     63  46  54 N3        30.15R
WEST MEMPHIS   CLEAR     69  45  41 N5        30.13R
BATESVILLE     CLEAR     70  45  40 SE5       30.15R
NEWPORT        CLEAR     70  49  47 E12       30.16R
WALNUT RIDGE   CLEAR     68  48  49 E5        30.16R
BLYTHEVILLE    PTCLDY    67  49  52 NE3       30.15S
SEARCY         CLEAR     70  49  47 N5        30.16R
STUTTGART      CLEAR     72  48  43 E3        30.15S
PINE BLUFF     CLEAR     70  53  54 NE6       30.14R
MONTICELLO     CLEAR     67  53  61 CALM      30.13R


...NORTH MISSISSIPPI...

CITY           SKY/WX    TMP DP  RH WIND       PRES   REMARKS
TUPELO         PTCLDY    69  44  40 CALM      30.12R
OXFORD         PTCLDY    64  46  52 CALM      30.14R
TUNICA         CLEAR     64  48  55 N7        30.14R
CLARKSDALE       N/A     68  48  49 CALM      30.14R
CORINTH        PTCLDY    66  45  45 NW3       30.13R
GRENADA        CLEAR     63  52  67 CALM      30.12R
GREENWOOD      CLEAR     65  52  62 CALM      30.11R
COLUMBUS       CLEAR     66  49  54 CALM      30.11R
STARKVILLE     FAIR      63  52  67 CALM      30.12R
GOLDEN TRIANGL CLEAR     70  45  40 N3        30.13R


...SOUTHEAST MISSOURI...

CITY           SKY/WX    TMP DP  RH WIND       PRES   REMARKS
DONIPHAN         N/A     68  38  33 SE3         N/A
WEST PLAINS    PTCLDY    70  39  32 SE5       30.16S
POPLAR BLUFF   PTCLDY    68  46  45 E3        30.15R
CAPE GIRARDEAU MOCLDY    70  44  39 CALM      30.16R


...NORTHWEST ALABAMA...

CITY           SKY/WX    TMP DP  RH WIND       PRES   REMARKS
MUSCLE SHOALS  CLEAR     64  43  46 E3        30.14R


...MIDDLE TENNESSEE...

CITY           SKY/WX    TMP DP  RH WIND       PRES   REMARKS
NASHVILLE      PTCLDY    67  40  37 N7        30.15R
CLARKSVILLE    CLEAR     67  38  34 CALM      30.15R
DICKSON        CLEAR     68  36  30 NE3       30.16R
COLUMBIA       CLEAR     61  48  63 CALM      30.13S
LEWISBURG      CLEAR     61  46  57 CALM      30.14R


...WESTERN KENTUCKY...

CITY           SKY/WX    TMP DP  RH WIND       PRES   REMARKS
PADUCAH        PTCLDY    70  41  34 N5        30.16R
FORT CAMPBELL  CLEAR     66  41  39 NE5       30.16R


...CENTRAL ARKANSAS...

CITY           SKY/WX    TMP DP  RH WIND       PRES   REMARKS
LITTLE ROCK    PTCLDY    69  49  48 E6        30.14R


SKY/WX REPORTED AS FAIR MEANS FEW OR NO CLOUDS BELOW
12 THOUSAND FEET.




USA.gov is the U.S. government's official web portal to all federal, state and local government web resources and services.